Regional Weather Roundup
Issued by NWS Sterling, VA

Home | Current Version | Previous Version | Graphics & Text | Print | Product List | Glossary On
Versions: 1 2 3 4 5 6 7 8 9 10 11 12 13 14 15 16 17 18 19 20 21 22 23 24 25 26 27 28 29 30 31 32 33 34 35 36 37 38 39 40 41 42 43 44 45 46 47 48 49 50
000
ASUS41 KLWX 031710
RWRLWX

REGIONAL WEATHER ROUNDUP
NATIONAL WEATHER SERVICE BALTIMORE MD/WASHINGTON DC
100 PM EDT MON AUG 03 2015

Note: "FAIR" indicates few or no clouds below 12,000 feet
with no significant weather and/or obstructions to visibility.
 TC=TEMPERATURE CELSIUS

 * =Non NWS site. Station does not report precipitation (e.g. rain,
    snow, etc.), thunder, or fog.

DCZ001-MDZ009-015-VAZ040>042-051-053>054-031800-
WASHINGTON METRO

CITY           SKY/WX    TMP DP  RH WIND       PRES   REMARKS
WASHINGTON NAT MOSUNNY   88  68  51 S16       29.85F HX  91
DULLES         MOSUNNY   87  57  35 S8        29.85F
ANDREWS AFB    SUNNY     89  64  43 SW10      29.86F
FT BELVOIR     SUNNY     87  65  47 S8        29.85F
QUANTICO       MOSUNNY   89  64  44 S8        29.82S HX  90
COLLEGE PARK*  SUNNY     88  55  33 CALM      29.85F
LEESBURG*      SUNNY     91  63  38 S12G20    29.86F HX  92
GAITHERSBURG*  SUNNY     88  59  37 W5        29.89F

$$

MDZ006>007-011-014-031800-
BALTIMORE METRO

CITY           SKY/WX    TMP DP  RH WIND       PRES   REMARKS
BWI AIRPORT    MOSUNNY   89  56  32 W9        29.84F
MD SCIENCE CTR   N/A     90  56  31 MISG      29.84F
MARTIN STATE   MOSUNNY   88  70  55 SE13      29.85F HX  92
ANNAPOLIS      SUNNY     86  60  41 S8        29.85F
FORT MEADE*    SUNNY     86  59  39 CALM      29.87F

$$

MDZ012-015-019>023-031800-
MARYLAND EASTERN SHORE

CITY           SKY/WX    TMP DP  RH WIND       PRES   REMARKS
OCEAN CITY     MOSUNNY   84  74  71 S12G17    29.88F HX  91
SALISBURY      SUNNY     87  64  46 SW9       29.88F
BAY BRIDGE AP*   N/A     86  59  39 S8        29.86F
CAMBRIDGE*     SUNNY     86  61  42 SW10      29.87F
EASTON*        SUNNY     90  63  40 SW9       29.90F HX  90

$$

MDZ017>025-031800-
SOUTHERN MARYLAND

CITY           SKY/WX    TMP DP  RH WIND       PRES   REMARKS
PATUXENT RIVER PTSUNNY   86  65  49 SW7       29.87F
ST INIGOES     MOSUNNY   86  69  56 S7        29.87F HX  90
LEONARDTOWN*   PTSUNNY   84  63  48 SW6       29.90S

$$

MDZ003>005-031800-
NORTH CENTRAL MARYLAND

CITY           SKY/WX    TMP DP  RH WIND       PRES   REMARKS
FREDERICK*     NOT AVBL
HAGERSTOWN APT MOSUNNY   87  57  35 S13G20    29.83S
WESTMINSTER*   SUNNY     88  61  40 S13       29.84F

$$

MDZ501>502-031800-
WESTERN MARYLAND

CITY           SKY/WX    TMP DP  RH WIND       PRES   REMARKS
OAKLAND*       CLOUDY    73  68  83 SW6       29.96R
CUMBERLAND*    CLOUDY    86  55  35 SW8       29.87R

$$

VAZ025>031-031800-
SHENANDOAH VALLEY

CITY           SKY/WX    TMP DP  RH WIND       PRES   REMARKS
WINCHESTER*    MOSUNNY   88  59  37 SW6G16    29.86F
FRONT ROYAL*   FAIR      84  61  45 SW5       29.86S
LURAY*         FAIR      88  61  40 SW7       29.88S
NEW MARKET*    FAIR      83  67  58 S9        29.85F
STAUNTON*      MOSUNNY   88  57  35 SW9       29.93S
WAYNESBORO*    FAIR      82  61  50 SW5       29.93F

$$

WVZ021-048>050-054>055-031800-
EASTERN WEST VIRGINIA PANHANDLE

CITY           SKY/WX    TMP DP  RH WIND       PRES   REMARKS
MARTINSBURG    MOSUNNY   87  59  38 S14       29.83F
PETERSBURG*    PTSUNNY  N/A N/A N/A SW8       29.87R

$$

VAZ036>039-050-031800-
CENTRAL FOOTHILLS

CITY           SKY/WX    TMP DP  RH WIND       PRES   REMARKS
CHARLOTTESVILL SUNNY     85  62  46 S8        29.88F
CULPEPER*      SUNNY     86  64  48 SW5       29.87F
ORANGE*        SUNNY     88  63  42 CALM      29.89F
GORDONSVILLE*  FAIR      86  64  48 S9        29.87F
WARRENTON*     FAIR      89  68  49 S5        29.86F HX  92

$$

VAZ055>057-031800-
NORTH AND CENTRAL PIEDMONT

CITY           SKY/WX    TMP DP  RH WIND       PRES   REMARKS
FREDERICKSBRG* SUNNY     89  65  44 SW8       29.86F HX  91
STAFFORD*      SUNNY     87  60  39 W5        29.91F

$$

NCZ024-NYZ072-PAZ021-071-VAZ022-071-031800-
OTHER REGIONAL OBSERVATIONS

CITY           SKY/WX    TMP DP  RH WIND       PRES   REMARKS
NEW YORK CITY  SUNNY     88  63  43 SW8       29.84F
PHILADELPHIA   MOSUNNY   88  61  40 SW15      29.85F
PITTSBURGH     PTSUNNY   78  58  49 VRB5      29.85R
ROANOKE        MOSUNNY   87  56  34 VRB3      29.96F
RICHMOND       MOSUNNY   89  69  51 S8        29.89F HX  93
RALEIGH        PTSUNNY   89  69  51 S7        29.94F HX  93

$$

ANZ530>537-031800-
MARINE OBSERVATIONS

STATION/POSITION TIME  TEMP    WIND        PRES
                       AIR SEA DIR/SP/G
                 (UTC) (F)     (DEG/KT/KT) (MB)
THOMAS PT LIGHT  1700   83 81  190/ 13       N/A
BALT KEY BRIDGE  1600   84     180/  4/  6 1010.9F
COVE POINT       1600   83     210/ 12/ 15 1012.5F
LEWISETTA        1600   84 84  190/  6/  9 1011.7F
SOLOMONS ISLAND  1600      83                N/A
PINEY POINT      1600          180/  4/  6   N/A

$$




USA.gov is the U.S. government's official web portal to all federal, state and local government web resources and services.